STARLINK-34581

Last updated on Sat Aug 02 2025 00:02:05 GMT+0000 (Coordinated Universal Time)

1 64745U 25144X 25213.25360437 .00078047 00000+0 13960-2 0 9991 2 64745 53.1600 126.2506 0001286 115.2158 244.8984 15.49336497 5943
UTC large
Height (km)
Speed (km/s)
/
Latitude / Longitude
Inclination (degrees)
Orbital Period (minutes)
Azimuth
Elevation
Range (km)
Doppler Factor

Next 0 passes for location: London (51.5072 / 0.1276)

Sorry there are no passes over London.